Alamogordo, NM

4:40 AM MST on November 20, 2019 (GMT -0700)
Alamogordo-White Sands Regional

Weather History for KALM - September, 2019

Change the Weather History Date:

Tuesday, September 24, 2019

  Actual Average Record
Temperature  
Mean Temperature 70 °F -  
Max Temperature 82 °F 82 °F 95 °F (2005)
Min Temperature 59 °F 55 °F 46 °F (1968)
Cooling Degree Days 6    
Growing Degree Days 20 (Base 50)    
Moisture  
Dew Point 51 °F    
Average Humidity 50    
Maximum Humidity 88    
Minimum Humidity 30    
Precipitation  
Precipitation 0.03 in - - ()
Sea Level Pressure  
Sea Level Pressure 30.05 in    
Wind  
Wind Speed 8 mph ()    
Max Wind Speed 21 mph    
Max Gust Speed 34 mph    
Visibility 9.9 miles    
Events Rain    
Averages and records for this station are not official NWS values.
T = Trace of Precipitation, MM = Missing Value Source: Averaged Metar Reports

Daily Weather History Graph

Daily Weather History Graph

Search for Another Location

Airport or City:

Astronomy

Sep. 24, 2019 Rise Set
Actual Time 6:53 AM MDT 6:58 PM MDT
Civil Twilight 6:28 AM MDT 7:22 PM MDT
Nautical Twilight 6:00 AM MDT 7:51 PM MDT
Astronomical Twilight 5:31 AM MDT 8:20 PM MDT
Moon 2:00 AM MDT (9/24) 4:28 PM MDT (9/24)
Length of Visible Light 12h 54m
Length of Day
12h 04m
Waning Crescent, 22% of the Moon is Illuminated
Sep 24
Waning Crescent
Sep 28
New
Oct 5
First Quarter
Oct 13
Full
Oct 21
Last Quarter

Hourly Weather History & Observations

Time (MDT) Temp. Dew Point Humidity Pressure Visibility Wind Dir Wind Speed Gust Speed Precip Events Conditions
12:15 AM 71.6 °F 44.6 °F 38% 30.08 in 10.0 mi North 10.4 mph 16.1 mph N/A   Mostly Cloudy
12:35 AM 71.6 °F 44.6 °F 38% 30.08 in 10.0 mi North 11.5 mph - N/A   Mostly Cloudy
1:15 AM 68.0 °F 50.0 °F 52% 30.10 in 10.0 mi NNW 20.7 mph 34.5 mph N/A   Mostly Cloudy
1:35 AM 66.2 °F 51.8 °F 60% 30.14 in 10.0 mi NW 16.1 mph 20.7 mph N/A Rain Light Rain
1:55 AM 62.6 °F 55.4 °F 77% 30.13 in 7.0 mi NNE 15.0 mph 24.2 mph 0.02 in Rain Light Rain
2:15 AM 62.6 °F 55.4 °F 77% 30.11 in 10.0 mi NE 12.7 mph - 0.01 in   Overcast
5:15 AM 60.8 °F 55.4 °F 82% 30.10 in 10.0 mi NNE 5.8 mph - N/A   Partly Cloudy
5:35 AM 62.6 °F 55.4 °F 77% 30.10 in 10.0 mi North 8.1 mph - N/A   Partly Cloudy
5:55 AM 62.6 °F 53.6 °F 72% 30.11 in 10.0 mi NNW 9.2 mph - N/A   Clear
6:15 AM 59.0 °F 55.4 °F 88% 30.11 in 10.0 mi NNE 4.6 mph - N/A   Clear
6:35 AM 59.0 °F 55.4 °F 88% 30.09 in 10.0 mi ENE 8.1 mph - N/A   Clear
6:55 AM 62.6 °F 55.4 °F 77% 30.08 in 10.0 mi North 5.8 mph - N/A   Clear
7:15 AM 62.6 °F 53.6 °F 72% 30.07 in 10.0 mi NNW 5.8 mph - N/A   Clear
7:35 AM 59.0 °F 55.4 °F 88% 30.07 in 10.0 mi North 5.8 mph - N/A   Clear
7:55 AM 60.8 °F 55.4 °F 82% 30.07 in 10.0 mi SSE 8.1 mph - N/A   Clear
8:15 AM 62.6 °F 55.4 °F 77% 30.08 in 10.0 mi SSW 3.5 mph - N/A   Clear
8:35 AM 64.4 °F 55.4 °F 73% 30.09 in 10.0 mi SSE 5.8 mph - N/A   Clear
8:55 AM 64.4 °F 55.4 °F 73% 30.09 in 10.0 mi South 4.6 mph - N/A   Clear
9:15 AM 66.2 °F 55.4 °F 68% 30.09 in 10.0 mi Calm Calm - N/A   Clear
9:55 AM 71.6 °F 57.2 °F 60% 30.09 in 10.0 mi NE 4.6 mph - N/A   Clear
10:15 AM 73.4 °F 57.2 °F 57% 30.09 in 10.0 mi SSE 4.6 mph - N/A   Clear
10:35 AM 75.2 °F 55.4 °F 50% 30.10 in 10.0 mi West 5.8 mph - N/A   Clear
10:55 AM 75.2 °F 53.6 °F 47% 30.10 in 10.0 mi North 4.6 mph - N/A   Clear
11:15 AM 77.0 °F 51.8 °F 41% 30.09 in 10.0 mi NW 8.1 mph - N/A   Clear
11:35 AM 77.0 °F 50.0 °F 39% 30.09 in 10.0 mi NNW 5.8 mph - N/A   Clear
11:55 AM 77.0 °F 50.0 °F 39% 30.09 in 10.0 mi WNW 5.8 mph - N/A   Clear
12:15 PM 78.8 °F 50.0 °F 36% 30.09 in 10.0 mi NNE 5.8 mph - N/A   Clear
12:55 PM 80.6 °F 48.2 °F 32% 30.08 in 10.0 mi NNW 11.5 mph - N/A   Clear
1:15 PM 80.6 °F 48.2 °F 32% 30.07 in 10.0 mi WNW 8.1 mph - N/A   Clear
1:35 PM 80.6 °F 48.2 °F 32% 30.06 in 10.0 mi NNW 6.9 mph - N/A   Clear
1:55 PM 80.6 °F 48.2 °F 32% 30.05 in 10.0 mi North 5.8 mph - N/A   Clear
2:15 PM 82.4 °F 48.2 °F 30% 30.05 in 10.0 mi NNW 8.1 mph - N/A   Clear
2:35 PM 82.4 °F 48.2 °F 30% 30.04 in 10.0 mi NW 9.2 mph - N/A   Clear
2:55 PM 82.4 °F 50.0 °F 32% 30.03 in 10.0 mi NW 6.9 mph - N/A   Clear
3:15 PM 82.4 °F 50.0 °F 32% 30.02 in 10.0 mi West 10.4 mph - N/A   Clear
3:35 PM 82.4 °F 50.0 °F 32% 30.02 in 10.0 mi WNW 11.5 mph - N/A   Clear
3:55 PM 82.4 °F 50.0 °F 32% 30.01 in 10.0 mi NW 10.4 mph - N/A   Clear
4:15 PM 80.6 °F 48.2 °F 32% 30.00 in 10.0 mi NW 9.2 mph - N/A   Clear
4:35 PM 82.4 °F 48.2 °F 30% 30.00 in 10.0 mi NNW 8.1 mph - N/A   Clear
4:55 PM 82.4 °F 48.2 °F 30% 30.00 in 10.0 mi NNW 11.5 mph - N/A   Clear
5:15 PM 82.4 °F 48.2 °F 30% 29.99 in 10.0 mi NNW 9.2 mph - N/A   Clear
5:55 PM 82.4 °F 48.2 °F 30% 29.99 in 10.0 mi North 6.9 mph - N/A   Clear
6:15 PM 82.4 °F 48.2 °F 30% 29.99 in 10.0 mi NNW 9.2 mph - N/A   Clear
6:35 PM 80.6 °F 48.2 °F 32% 30.00 in 10.0 mi NW 8.1 mph - N/A   Clear
6:55 PM 78.8 °F 48.2 °F 34% 30.00 in 10.0 mi NW 6.9 mph - N/A   Clear
7:15 PM 75.2 °F 50.0 °F 41% 30.01 in 10.0 mi WNW 8.1 mph - N/A   Clear
7:35 PM 73.4 °F 50.0 °F 44% 30.01 in 10.0 mi NW 6.9 mph - N/A   Clear
7:55 PM 73.4 °F 50.0 °F 44% 30.02 in 10.0 mi NW 6.9 mph - N/A   Clear
8:15 PM 71.6 °F 50.0 °F 46% 30.02 in 10.0 mi NNW 4.6 mph - N/A   Clear
8:35 PM 69.8 °F 50.0 °F 49% 30.03 in 10.0 mi NNE 4.6 mph - N/A   Clear
8:55 PM 69.8 °F 50.0 °F 49% 30.03 in 10.0 mi North 4.6 mph - N/A   Clear
9:15 PM 69.8 °F 50.0 °F 49% 30.03 in 10.0 mi NNE 8.1 mph - N/A   Clear
9:35 PM 69.8 °F 48.2 °F 46% 30.03 in 10.0 mi NE 5.8 mph - N/A   Clear
9:55 PM 69.8 °F 48.2 °F 46% 30.02 in 10.0 mi North 6.9 mph - N/A   Clear
10:15 PM 71.6 °F 48.2 °F 43% 30.02 in 10.0 mi North 6.9 mph - N/A   Clear
10:35 PM 69.8 °F 48.2 °F 46% 30.01 in 10.0 mi North 3.5 mph - N/A   Clear
10:55 PM 69.8 °F 48.2 °F 46% 30.01 in 10.0 mi NW 3.5 mph - N/A   Clear
11:15 PM 69.8 °F 48.2 °F 46% 30.01 in 10.0 mi North 3.5 mph - N/A   Clear
11:35 PM 66.2 °F 50.0 °F 56% 30.02 in 10.0 mi Calm Calm - N/A   Clear
11:55 PM 64.4 °F 50.0 °F 59% 30.03 in 10.0 mi Calm Calm - N/A   Clear